Helicity
138 128 119 118 111 103 100 99 93 84 53 45 55 68 83 73 76 80 73 78 96 101 101 96 84 72 63 52 43 38 37 37 36 49 56 47 57 73
144 147 131 122 126 118 109 104 113 128 131 83 72 85 88 90 81 83 82 85 99 114 122 117 106 88 77 73 60 44 37 38 34 30 41 56 54 62
159 152 145 123 117 124 127 125 129 143 165 150 114 78 65 52 72 80 77 77 83 105 127 137 135 128 107 87 76 57 49 41 45 44 42 43 58 57
140 144 140 129 133 125 125 134 133 139 148 148 142 125 110 96 56 34 28 29 35 44 93 119 119 117 127 122 97 87 72 61 50 54 53 54 51 63
123 125 119 126 128 126 135 141 144 154 155 150 145 143 152 144 137 118 99 88 41 47 86 112 139 183 188 191 168 148 120 96 78 60 61 60 56 56
125 123 119 116 113 118 120 121 130 145 148 151 137 119 112 113 123 118 125 108 121 69 74 94 163 205 242 252 223 222 207 149 111 85 68 76 75 63
132 134 132 129 124 128 138 142 148 145 144 140 140 139 118 99 91 87 102 89 105 90 104 82 95 114 137 175 184 180 188 200 178 125 85 71 84 77
137 141 147 145 162 172 168 154 155 169 153 133 144 131 114 100 107 104 96 83 83 24 49 89 62 90 72 107 135 190 192 191 188 171 131 97 84 97
148 153 164 165 174 170 165 160 153 135 119 142 144 132 124 115 112 100 100 106 96 80 77 66 61 76 61 52 46 83 127 169 173 168 139 127 103 95
175 166 165 164 158 156 143 141 133 121 112 126 120 110 107 96 105 111 107 104 110 95 85 88 74 70 59 56 28 44 80 135 169 163 146 142 124 111
154 152 145 140 120 115 118 111 108 113 105 99 113 113 100 94 99 110 114 118 113 99 108 109 92 77 58 55 44 24 58 109 140 162 121 118 154 142
129 119 100 100 85 86 105 114 121 113 132 145 139 112 92 87 68 86 100 99 95 86 79 72 84 76 34 46 57 52 30 70 141 155 139 63 91 239
106 99 97 76 80 72 83 117 113 110 118 137 132 119 101 90 83 88 91 98 97 110 83 88 96 88 119 90 75 60 35 36 79 126 167 57 37 130
115 116 110 58 51 56 68 61 61 88 109 111 118 109 101 95 92 95 91 94 102 97 75 78 105 87 85 76 51 28 15 31 62 104 125 70 38 51
128 89 36 45 42 62 53 37 53 89 102 109 109 106 124 115 107 105 97 77 82 81 83 94 111 93 97 97 44 33 12 43 65 87 109 93 138 155
76 75 54 59 57 54 63 71 94 105 122 135 124 119 114 117 107 108 87 68 58 49 64 82 103 114 102 95 65 14 33 35 99 57 69 89 113 140
49 75 78 66 69 74 77 84 94 102 109 131 128 112 98 100 108 118 91 116 95 77 75 73 90 95 110 79 46 39 14 11 117 108 62 88 102 172
81 81 69 75 77 73 73 72 77 80 108 116 112 108 96 93 95 90 112 98 88 70 56 57 76 53 67 73 62 44 40 8 7 91 127 141 109 89
88 80 79 76 68 61 59 67 70 86 106 120 124 117 112 109 102 115 105 74 76 71 80 83 59 70 51 57 51 30 27 39 -4 22 82 52 56 64
92 82 74 70 67 71 75 83 88 94 95 95 111 113 108 116 116 124 113 115 105 83 81 80 91 74 48 42 35 20 24 32 31 35 48 57 71 106
87 79 78 78 75 81 83 85 83 82 83 86 92 89 98 113 113 118 117 73 70 90 78 47 68 23 35 48 74 62 58 42 35 40 49 66 69 66
90 86 84 78 72 65 77 88 87 82 73 75 86 109 119 125 123 122 123 119 114 103 84 59 35 46 58 65 49 69 73 65 63 28 27 33 48 62
90 84 74 61 58 70 75 79 80 83 86 85 98 111 125 133 134 138 140 131 120 110 84 63 60 52 53 46 37 25 50 63 68 83 68 26 9 4
Wind_Speed
51 51 51 52 52 52 52 53 57 68 70 55 57 55 59 70 77 78 78 80 80 79 79 78 77 75 73 73 71 68 66 66 66 66 63 60 60 59
52 54 54 55 57 57 57 57 56 62 72 63 68 71 75 77 77 76 80 80 81 83 83 82 81 79 78 77 75 71 69 66 64 64 66 64 59 59
54 56 57 58 60 61 61 62 64 64 76 78 78 80 81 81 82 81 81 83 84 85 86 87 86 84 82 80 78 75 72 70 67 66 64 65 65 62
56 57 60 61 63 63 66 69 70 70 75 89 84 87 89 89 91 92 89 85 85 87 92 93 91 91 90 86 83 81 78 75 72 69 66 65 65 66
58 61 63 65 68 70 72 73 74 76 79 84 91 86 90 91 96 92 93 93 86 90 92 93 93 91 90 91 90 87 84 79 77 75 70 68 66 66
62 64 66 68 72 73 75 76 77 82 84 89 94 94 90 91 90 97 99 95 99 91 92 86 88 88 92 93 89 89 88 86 83 81 77 71 69 68
66 68 69 71 73 73 76 79 81 84 89 94 97 96 97 97 99 95 102 99 97 93 93 89 93 90 91 92 92 91 91 90 88 86 83 78 73 71
73 73 74 75 75 76 78 80 79 87 93 95 98 101 100 98 97 99 101 105 110 83 91 103 90 94 90 88 90 93 93 94 94 91 86 82 79 75
73 76 78 76 78 80 81 81 79 77 80 88 94 94 97 93 95 99 98 99 103 97 96 108 91 98 89 88 88 91 95 96 96 93 89 84 80 76
75 78 80 81 80 82 81 82 80 79 79 80 82 85 85 86 86 88 92 94 94 92 84 99 91 95 91 84 86 87 88 90 95 96 91 86 80 75
76 77 76 78 79 80 82 84 83 83 76 77 78 80 83 84 84 87 91 92 98 92 80 82 87 87 82 88 79 80 80 89 90 89 91 89 83 74
76 74 73 74 76 76 79 81 84 84 83 82 82 81 80 80 81 77 79 86 86 91 72 75 81 80 87 74 76 84 82 85 87 85 86 80 81 73
75 75 74 75 76 74 75 74 75 77 77 76 77 78 79 79 77 73 70 70 78 78 75 75 77 77 74 86 82 83 84 83 84 84 83 78 75 67
75 74 73 70 71 71 69 70 74 76 74 77 77 77 77 75 73 70 69 66 62 65 71 68 70 74 77 82 87 83 84 84 80 78 75 69 65 64
69 68 68 67 66 65 67 68 70 68 68 70 70 69 65 64 65 66 66 65 64 61 61 58 60 65 65 70 83 85 87 85 72 70 69 62 56 54
65 62 62 62 64 63 64 62 62 61 61 61 61 59 57 58 62 62 65 66 66 69 61 58 55 56 63 64 72 84 79 80 63 62 58 51 49 44
65 61 63 66 65 62 60 59 59 60 60 55 55 57 56 53 51 50 52 55 60 67 70 66 61 54 53 59 73 70 71 74 59 54 48 39 40 46
62 64 66 62 62 61 60 61 59 58 54 52 51 54 55 54 51 48 42 42 44 48 55 64 67 65 60 55 37 59 61 57 51 39 32 34 36 35
63 63 61 58 59 59 59 59 58 55 50 49 49 51 51 49 46 47 48 49 47 48 44 50 48 54 67 65 55 48 54 54 48 35 28 33 40 47
60 58 56 56 58 59 59 58 55 54 50 46 43 42 44 43 43 41 41 40 42 48 46 48 50 48 42 61 65 59 51 55 47 40 37 35 35 40
55 53 54 56 56 57 56 53 50 52 46 44 42 38 35 36 38 39 38 37 36 42 44 50 48 55 42 34 48 52 49 41 42 42 38 37 40 44
52 53 54 54 54 53 52 50 50 49 44 38 37 36 33 32 31 34 35 36 35 32 28 33 46 55 51 37 32 37 39 40 40 40 40 42 43 47
50 50 51 52 52 51 51 52 51 49 42 35 33 31 32 32 30 30 30 31 28 26 25 25 36 41 41 33 38 33 29 36 39 41 46 47 50 52
Wind_Direction
334 334 333 333 332 330 328 327 323 318 316 321 321 324 323 320 319 319 319 319 318 318 318 318 318 318 319 320 322 323 324 322 320 318 319 323 316 304
332 332 331 331 330 328 326 324 321 317 312 316 315 315 316 316 317 318 317 317 317 317 316 315 314 314 314 314 315 316 317 317 317 315 311 311 313 304
333 332 331 330 328 327 325 323 320 317 311 312 313 313 313 314 314 315 315 314 314 314 314 312 311 311 311 310 310 310 310 311 311 310 309 306 301 300
332 331 330 329 327 326 324 321 319 318 314 311 313 313 312 313 312 312 312 313 312 312 311 309 308 306 305 305 305 304 303 303 304 304 302 301 298 294
332 329 328 326 324 323 321 319 318 317 315 313 312 314 313 313 311 311 311 310 312 312 312 310 307 305 305 303 301 300 299 298 297 297 297 295 293 291
329 327 325 324 322 321 320 319 317 316 315 313 312 313 314 315 313 311 309 310 309 311 312 310 309 307 306 304 302 299 298 294 292 291 291 290 288 286
327 326 324 323 321 321 319 318 317 316 314 313 312 311 312 312 311 312 309 310 310 310 309 309 308 306 305 303 301 298 296 293 290 288 286 285 283 282
325 324 324 323 322 321 319 318 317 315 314 313 312 311 311 311 311 310 309 308 307 312 309 306 309 306 305 304 301 298 294 292 289 286 283 281 279 278
326 325 323 323 322 321 320 319 318 317 317 316 314 313 312 313 312 311 310 308 307 309 309 305 308 304 306 304 303 299 295 291 287 283 281 279 276 274
326 325 324 323 323 322 321 319 318 317 318 318 316 315 315 315 314 313 312 310 309 310 311 306 309 306 306 306 305 303 298 294 288 281 277 276 274 272
327 326 326 325 325 324 320 319 319 319 320 319 319 318 317 317 317 316 313 312 309 310 313 310 311 310 309 307 307 305 303 297 293 286 276 272 271 269
327 328 328 328 327 327 324 323 321 321 321 320 319 319 319 318 318 318 316 312 312 311 317 314 312 313 308 309 308 306 304 301 293 288 280 270 269 266
328 328 329 329 329 329 328 327 325 325 324 324 323 322 321 320 320 320 319 317 313 312 315 315 313 311 308 306 305 305 303 300 296 288 283 271 264 262
328 329 330 330 331 331 331 331 330 330 330 328 327 326 325 324 323 323 322 321 320 317 317 317 314 312 309 308 305 305 303 300 296 287 283 271 264 259
329 330 330 332 332 333 334 334 335 336 337 336 336 335 335 333 330 327 326 324 323 323 321 320 319 317 315 312 306 304 301 302 295 286 285 269 264 261
331 332 332 333 333 333 334 337 339 340 340 340 341 342 342 341 336 334 330 329 327 324 327 325 323 322 316 316 313 302 306 300 297 287 284 272 266 259
332 332 331 331 332 333 335 337 339 341 342 343 344 344 345 346 345 344 340 336 332 328 324 324 324 324 323 320 311 308 306 304 300 287 278 273 269 267
332 331 330 332 334 335 335 336 339 341 345 346 344 343 343 344 345 346 348 345 343 342 338 330 322 322 323 320 327 311 308 315 316 297 275 273 273 268
332 331 331 332 334 336 337 338 340 342 344 344 342 339 339 341 341 342 342 341 339 339 341 341 343 333 319 314 317 320 304 305 298 310 293 285 278 273
334 333 333 333 333 334 335 336 338 341 345 348 349 349 347 346 346 345 345 342 340 338 336 336 338 340 338 317 306 304 307 290 292 297 301 303 300 293
338 337 336 335 334 335 337 339 341 343 348 352 353 355 355 353 350 349 348 347 344 344 339 333 335 333 337 343 321 307 306 301 294 293 298 299 297 294
342 340 339 338 338 339 340 342 342 344 349 354 355 355 355 354 352 351 351 351 351 348 345 342 336 331 331 346 352 327 308 304 298 295 297 296 296 295
343 342 341 340 340 340 341 342 342 343 349 354 356 356 355 353 353 353 353 353 352 354 355 354 346 340 336 346 349 358 337 310 307 301 298 297 294 293